Time,TemperatureF,DewpointF,PressureIn,WindDirection,WindDirectionDegrees,WindSpeedMPH,WindSpeedGustMPH,Humidity,HourlyPrecipIn,Conditions,Clouds,dailyrainin,SolarRadiationWatts/m^2,SoftwareType,DateUTC
2013-05-19 00:00:00,74.8,71.7,29.91,SSE,164,4.0,4.0,90,0.00,,,0.00,0,Wunderground v.1.15,2013-05-19 05:00:00,
2013-05-19 00:05:00,74.8,71.7,29.91,SSE,166,3.0,4.0,90,0.00,,,0.00,0,Wunderground v.1.15,2013-05-19 05:05:00,
2013-05-19 00:10:00,74.9,71.8,29.91,South,171,3.0,3.0,90,0.00,,,0.00,0,Wunderground v.1.15,2013-05-19 05:10:00,
2013-05-19 00:15:00,75.0,71.9,29.91,SSW,198,4.0,4.0,90,0.00,,,0.00,0,Wunderground v.1.15,2013-05-19 05:15:00,
2013-05-19 00:25:00,75.1,72.0,29.91,SW,229,2.0,3.0,90,0.00,,,0.00,0,Wunderground v.1.15,2013-05-19 05:25:00,
2013-05-19 00:30:00,75.2,71.7,29.91,SW,225,2.0,2.0,89,0.00,,,0.00,0,Wunderground v.1.15,2013-05-19 05:30:00,
2013-05-19 00:35:00,75.3,71.8,29.91,SSW,202,3.0,3.0,89,0.00,,,0.00,0,Wunderground v.1.15,2013-05-19 05:35:00,
2013-05-19 00:40:00,75.3,71.8,29.90,SSW,200,2.0,2.0,89,0.00,,,0.00,0,Wunderground v.1.15,2013-05-19 05:40:00,
2013-05-19 00:50:00,75.3,71.8,29.90,South,175,1.0,3.0,89,0.00,,,0.00,0,Wunderground v.1.15,2013-05-19 05:50:00,
2013-05-19 00:55:00,75.2,71.4,29.90,SW,221,3.0,3.0,88,0.00,,,0.00,0,Wunderground v.1.15,2013-05-19 05:55:00,
2013-05-19 01:00:00,75.3,71.5,29.90,South,189,4.0,4.0,88,0.00,,,0.00,0,Wunderground v.1.15,2013-05-19 06:00:00,
2013-05-19 01:09:00,75.2,71.4,29.89,South,179,3.0,4.0,88,0.00,,,0.00,0,Wunderground v.1.15,2013-05-19 06:09:00,
2013-05-19 01:15:00,75.1,71.3,29.90,South,184,3.0,4.0,88,0.00,,,0.00,0,Wunderground v.1.15,2013-05-19 06:15:00,
2013-05-19 01:20:00,75.1,71.3,29.90,South,182,3.0,3.0,88,0.00,,,0.00,0,Wunderground v.1.15,2013-05-19 06:20:00,
2013-05-19 01:25:00,75.2,71.4,29.90,South,180,2.0,3.0,88,0.00,,,0.00,0,Wunderground v.1.15,2013-05-19 06:25:00,
2013-05-19 01:30:00,75.2,71.4,29.90,South,189,2.0,2.0,88,0.00,,,0.00,0,Wunderground v.1.15,2013-05-19 06:30:00,
2013-05-19 01:40:00,75.1,71.3,29.90,South,180,1.0,1.0,88,0.00,,,0.00,0,Wunderground v.1.15,2013-05-19 06:40:00,
2013-05-19 01:50:00,75.0,71.2,29.90,SSW,200,2.0,2.0,88,0.00,,,0.00,0,Wunderground v.1.15,2013-05-19 06:50:00,
2013-05-19 01:55:00,75.0,71.2,29.90,SW,222,2.0,3.0,88,0.00,,,0.00,0,Wunderground v.1.15,2013-05-19 06:55:00,
2013-05-19 02:00:00,75.0,71.2,29.90,SW,233,2.0,2.0,88,0.00,,,0.00,0,Wunderground v.1.15,2013-05-19 07:00:00,
2013-05-19 02:10:00,75.1,71.3,29.91,SSW,193,2.0,2.0,88,0.00,,,0.00,0,Wunderground v.1.15,2013-05-19 07:10:00,
2013-05-19 02:15:00,75.2,71.4,29.90,SSW,198,2.0,2.0,88,0.00,,,0.00,0,Wunderground v.1.15,2013-05-19 07:15:00,
2013-05-19 02:24:00,75.2,71.7,29.90,SSW,207,1.0,3.0,89,0.00,,,0.00,0,Wunderground v.1.15,2013-05-19 07:24:00,
2013-05-19 02:30:00,75.2,71.7,29.90,SW,217,2.0,6.0,89,0.00,,,0.00,0,Wunderground v.1.15,2013-05-19 07:30:00,
2013-05-19 02:35:00,75.2,71.7,29.89,SSE,167,4.0,6.0,89,0.00,,,0.00,0,Wunderground v.1.15,2013-05-19 07:35:00,
2013-05-19 02:40:00,75.2,71.7,29.89,SSW,193,5.0,5.0,89,0.00,,,0.00,0,Wunderground v.1.15,2013-05-19 07:40:00,
2013-05-19 02:45:00,75.2,71.7,29.89,SW,227,5.0,10.0,89,0.00,,,0.00,0,Wunderground v.1.15,2013-05-19 07:45:00,
2013-05-19 02:55:00,75.2,71.7,29.89,SSE,166,4.0,4.0,89,0.00,,,0.00,0,Wunderground v.1.15,2013-05-19 07:55:00,
2013-05-19 03:05:00,75.2,71.7,29.88,South,169,2.0,3.0,89,0.00,,,0.00,0,Wunderground v.1.15,2013-05-19 08:05:00,
2013-05-19 03:10:00,75.3,71.8,29.89,South,179,1.0,2.0,89,0.00,,,0.00,0,Wunderground v.1.15,2013-05-19 08:10:00,
2013-05-19 03:15:00,75.2,71.7,29.89,WSW,244,2.0,4.0,89,0.00,,,0.00,0,Wunderground v.1.15,2013-05-19 08:15:00,
2013-05-19 03:25:00,75.1,71.6,29.89,South,173,3.0,4.0,89,0.00,,,0.00,0,Wunderground v.1.15,2013-05-19 08:25:00,
2013-05-19 03:30:00,75.2,71.7,29.89,South,180,2.0,3.0,89,0.00,,,0.00,0,Wunderground v.1.15,2013-05-19 08:30:00,
2013-05-19 03:35:00,75.2,71.7,29.90,SSE,157,2.0,3.0,89,0.00,,,0.00,0,Wunderground v.1.15,2013-05-19 08:35:00,
2013-05-19 03:40:00,75.1,71.6,29.90,SSE,166,3.0,3.0,89,0.00,,,0.00,0,Wunderground v.1.15,2013-05-19 08:40:00,
2013-05-19 03:45:00,75.1,71.6,29.89,South,188,3.0,5.0,89,0.00,,,0.00,0,Wunderground v.1.15,2013-05-19 08:45:00,
2013-05-19 03:55:00,75.1,71.6,29.89,SSE,152,3.0,3.0,89,0.00,,,0.00,0,Wunderground v.1.15,2013-05-19 08:55:00,
2013-05-19 04:00:00,75.1,71.6,29.90,SSE,163,2.0,2.0,89,0.00,,,0.00,0,Wunderground v.1.15,2013-05-19 09:00:00,
2013-05-19 04:05:00,75.1,71.6,29.90,South,190,2.0,6.0,89,0.00,,,0.00,0,Wunderground v.1.15,2013-05-19 09:05:00,
2013-05-19 04:15:00,75.1,71.6,29.90,South,185,2.0,7.0,89,0.00,,,0.00,0,Wunderground v.1.15,2013-05-19 09:15:00,
2013-05-19 04:20:00,75.1,71.6,29.91,SSE,164,2.0,5.0,89,0.00,,,0.00,0,Wunderground v.1.15,2013-05-19 09:20:00,
2013-05-19 04:25:00,75.1,71.6,29.91,SSW,194,3.0,5.0,89,0.00,,,0.00,0,Wunderground v.1.15,2013-05-19 09:25:00,
2013-05-19 04:35:00,75.0,71.5,29.91,SW,227,1.0,2.0,89,0.00,,,0.00,0,Wunderground v.1.15,2013-05-19 09:35:00,
2013-05-19 04:40:00,75.0,71.5,29.91,SSE,161,2.0,3.0,89,0.00,,,0.00,0,Wunderground v.1.15,2013-05-19 09:40:00,
2013-05-19 04:50:00,75.0,71.9,29.91,SSE,161,2.0,2.0,90,0.00,,,0.00,0,Wunderground v.1.15,2013-05-19 09:50:00,
2013-05-19 04:55:00,75.0,71.5,29.91,South,191,2.0,3.0,89,0.00,,,0.00,0,Wunderground v.1.15,2013-05-19 09:55:00,
2013-05-19 05:00:00,74.9,71.8,29.91,SSW,200,2.0,3.0,90,0.00,,,0.00,0,Wunderground v.1.15,2013-05-19 10:00:00,
2013-05-19 05:10:00,74.8,71.7,29.91,South,172,2.0,4.0,90,0.00,,,0.00,0,Wunderground v.1.15,2013-05-19 10:10:00,
2013-05-19 05:15:00,74.8,71.7,29.91,SSE,159,2.0,4.0,90,0.00,,,0.00,0,Wunderground v.1.15,2013-05-19 10:15:00,
2013-05-19 05:20:00,74.9,71.4,29.91,South,181,2.0,5.0,89,0.00,,,0.00,0,Wunderground v.1.15,2013-05-19 10:20:00,
2013-05-19 05:25:00,74.9,71.8,29.90,South,180,3.0,5.0,90,0.00,,,0.00,0,Wunderground v.1.15,2013-05-19 10:25:00,
2013-05-19 05:35:00,74.6,71.5,29.90,SSW,194,2.0,4.0,90,0.00,,,0.00,0,Wunderground v.1.15,2013-05-19 10:35:00,
2013-05-19 05:40:00,74.5,71.4,29.90,SW,234,2.0,4.0,90,0.00,,,0.00,0,Wunderground v.1.15,2013-05-19 10:40:00,
2013-05-19 05:45:00,74.5,71.4,29.89,SSE,154,3.0,4.0,90,0.00,,,0.00,0,Wunderground v.1.15,2013-05-19 10:45:00,
2013-05-19 05:50:00,74.5,71.4,29.89,SSE,166,3.0,6.0,90,0.00,,,0.00,0,Wunderground v.1.15,2013-05-19 10:50:00,
2013-05-19 05:59:00,74.2,71.4,29.89,South,175,3.0,5.0,91,0.00,,,0.00,0,Wunderground v.1.15,2013-05-19 10:59:00,
2013-05-19 06:05:00,74.2,71.4,29.89,South,188,4.0,5.0,91,0.00,,,0.00,0,Wunderground v.1.15,2013-05-19 11:05:00,
2013-05-19 06:10:00,74.2,71.4,29.89,South,169,4.0,4.0,91,0.00,,,0.00,0,Wunderground v.1.15,2013-05-19 11:10:00,
2013-05-19 06:15:00,74.1,71.3,29.89,South,169,4.0,4.0,91,0.00,,,0.00,0,Wunderground v.1.15,2013-05-19 11:15:00,
2013-05-19 06:25:00,73.9,71.1,29.89,SSW,206,2.0,3.0,91,0.00,,,0.00,5,Wunderground v.1.15,2013-05-19 11:25:00,
2013-05-19 06:35:00,73.8,71.0,29.90,South,170,2.0,2.0,91,0.00,,,0.00,12,Wunderground v.1.15,2013-05-19 11:35:00,
2013-05-19 06:40:00,73.7,70.9,29.90,SSE,161,2.0,4.0,91,0.00,,,0.00,18,Wunderground v.1.15,2013-05-19 11:40:00,
2013-05-19 06:45:00,73.7,70.9,29.90,South,179,2.0,4.0,91,0.00,,,0.00,21,Wunderground v.1.15,2013-05-19 11:45:00,
2013-05-19 06:55:00,73.6,70.8,29.90,SW,225,2.0,3.0,91,0.00,,,0.00,37,Wunderground v.1.15,2013-05-19 11:55:00,
2013-05-19 07:00:00,73.7,71.2,29.90,SSW,201,2.0,2.0,92,0.00,,,0.00,42,Wunderground v.1.15,2013-05-19 12:00:00,
2013-05-19 07:05:00,73.8,71.0,29.91,SW,222,2.0,2.0,91,0.00,,,0.00,49,Wunderground v.1.15,2013-05-19 12:05:00,
2013-05-19 07:10:00,73.9,71.1,29.91,SSE,157,1.0,1.0,91,0.00,,,0.00,63,Wunderground v.1.15,2013-05-19 12:10:00,
2013-05-19 07:15:00,73.9,71.1,29.91,South,189,1.0,1.0,91,0.00,,,0.00,74,Wunderground v.1.15,2013-05-19 12:15:00,
2013-05-19 07:24:00,74.2,71.4,29.90,SSW,193,2.0,5.0,91,0.00,,,0.00,163,Wunderground v.1.15,2013-05-19 12:24:00,
2013-05-19 07:30:00,74.6,71.8,29.90,South,181,3.0,3.0,91,0.00,,,0.00,190,Wunderground v.1.15,2013-05-19 12:30:00,
2013-05-19 07:35:00,74.9,71.8,29.90,South,182,3.0,3.0,90,0.00,,,0.00,148,Wunderground v.1.15,2013-05-19 12:35:00,
2013-05-19 07:45:00,75.5,71.7,29.90,SSE,161,4.0,4.0,88,0.00,,,0.00,251,Wunderground v.1.15,2013-05-19 12:45:00,
2013-05-19 07:54:00,76.2,72.0,29.91,SSW,198,4.0,6.0,87,0.00,,,0.00,323,Wunderground v.1.15,2013-05-19 12:54:00,
2013-05-19 08:00:00,76.5,72.3,29.91,SSE,156,4.0,4.0,87,0.00,,,0.00,352,Wunderground v.1.15,2013-05-19 13:00:00,
2013-05-19 08:05:00,76.5,72.0,29.91,South,184,4.0,5.0,86,0.00,,,0.00,359,Wunderground v.1.15,2013-05-19 13:05:00,
2013-05-19 08:10:00,76.6,72.4,29.92,WSW,254,4.0,7.0,87,0.00,,,0.00,345,Wunderground v.1.15,2013-05-19 13:10:00,
2013-05-19 08:15:00,76.7,72.2,29.92,SSW,194,4.0,7.0,86,0.00,,,0.00,86,Wunderground v.1.15,2013-05-19 13:15:00,
2013-05-19 08:25:00,76.5,72.0,29.92,SSW,208,3.0,6.0,86,0.00,,,0.00,156,Wunderground v.1.15,2013-05-19 13:25:00,
2013-05-19 08:30:00,76.8,72.3,29.92,SSE,153,3.0,3.0,86,0.00,,,0.00,341,Wunderground v.1.15,2013-05-19 13:30:00,
2013-05-19 08:35:00,77.7,72.8,29.92,SW,228,3.0,4.0,85,0.00,,,0.00,160,Wunderground v.1.15,2013-05-19 13:35:00,
2013-05-19 08:40:00,78.0,72.8,29.92,South,175,4.0,5.0,84,0.00,,,0.00,151,Wunderground v.1.15,2013-05-19 13:40:00,
2013-05-19 08:45:00,77.9,72.7,29.92,SSE,160,4.0,5.0,84,0.00,,,0.00,139,Wunderground v.1.15,2013-05-19 13:45:00,
2013-05-19 08:54:00,77.6,72.4,29.92,South,173,4.0,4.0,84,0.00,,,0.00,113,Wunderground v.1.15,2013-05-19 13:54:00,
2013-05-19 08:59:00,77.6,72.4,29.93,SE,134,4.0,6.0,84,0.00,,,0.00,239,Wunderground v.1.15,2013-05-19 13:59:00,
2013-05-19 09:05:00,77.9,72.7,29.93,SSW,192,4.0,6.0,84,0.00,,,0.00,207,Wunderground v.1.15,2013-05-19 14:05:00,
2013-05-19 09:10:00,78.3,72.3,29.93,SW,219,4.0,4.0,82,0.00,,,0.00,684,Wunderground v.1.15,2013-05-19 14:10:00,
2013-05-19 09:15:00,79.0,73.4,29.93,SW,223,5.0,5.0,83,0.00,,,0.00,744,Wunderground v.1.15,2013-05-19 14:15:00,
2013-05-19 09:25:00,80.6,73.9,29.92,South,172,4.0,12.0,80,0.00,,,0.00,708,Wunderground v.1.15,2013-05-19 14:25:00,
2013-05-19 09:35:00,81.7,73.0,29.92,SSW,198,4.0,5.0,75,0.00,,,0.00,733,Wunderground v.1.15,2013-05-19 14:35:00,
2013-05-19 09:40:00,81.6,72.9,29.92,SSW,192,6.0,7.0,75,0.00,,,0.00,686,Wunderground v.1.15,2013-05-19 14:40:00,
2013-05-19 09:45:00,81.6,72.9,29.92,SW,224,6.0,7.0,75,0.00,,,0.00,684,Wunderground v.1.15,2013-05-19 14:45:00,
2013-05-19 09:50:00,82.0,72.9,29.92,South,170,5.0,5.0,74,0.00,,,0.00,722,Wunderground v.1.15,2013-05-19 14:50:00,
2013-05-19 09:59:00,82.9,72.9,29.92,SSW,205,5.0,6.0,72,0.00,,,0.00,752,Wunderground v.1.15,2013-05-19 14:59:00,
2013-05-19 10:04:00,82.7,73.2,29.92,WSW,241,6.0,9.0,73,0.00,,,0.00,744,Wunderground v.1.15,2013-05-19 15:04:00,
2013-05-19 10:10:00,82.3,73.2,29.92,South,186,7.0,7.0,74,0.00,,,0.00,735,Wunderground v.1.15,2013-05-19 15:10:00,
2013-05-19 10:15:00,82.6,73.5,29.91,South,180,5.0,7.0,74,0.00,,,0.00,759,Wunderground v.1.15,2013-05-19 15:15:00,
2013-05-19 10:20:00,83.1,74.4,29.91,South,176,4.0,4.0,75,0.00,,,0.00,765,Wunderground v.1.15,2013-05-19 15:20:00,
2013-05-19 10:29:00,83.8,73.0,29.91,SW,236,5.0,9.0,70,0.00,,,0.00,754,Wunderground v.1.15,2013-05-19 15:29:00,
2013-05-19 10:35:00,83.4,73.4,29.91,South,171,6.0,9.0,72,0.00,,,0.00,784,Wunderground v.1.15,2013-05-19 15:35:00,
2013-05-19 10:45:00,83.8,74.2,29.91,SW,232,4.0,12.0,73,0.00,,,0.00,800,Wunderground v.1.15,2013-05-19 15:45:00,
2013-05-19 10:55:00,83.5,73.5,29.91,SSW,213,6.0,11.0,72,0.00,,,0.00,826,Wunderground v.1.15,2013-05-19 15:55:00,
2013-05-19 11:00:00,83.2,73.2,29.91,SSW,200,7.0,7.0,72,0.00,,,0.00,838,Wunderground v.1.15,2013-05-19 16:00:00,
2013-05-19 11:05:00,83.7,73.7,29.91,South,178,5.0,7.0,72,0.00,,,0.00,844,Wunderground v.1.15,2013-05-19 16:05:00,
2013-05-19 11:10:00,83.8,73.4,29.91,West,278,5.0,7.0,71,0.00,,,0.00,874,Wunderground v.1.15,2013-05-19 16:10:00,
2013-05-19 11:20:00,83.9,73.5,29.91,WSW,255,6.0,8.0,71,0.00,,,0.00,921,Wunderground v.1.15,2013-05-19 16:20:00,
2013-05-19 11:25:00,84.0,73.6,29.91,SW,220,5.0,8.0,71,0.00,,,0.00,909,Wunderground v.1.15,2013-05-19 16:25:00,
2013-05-19 11:30:00,84.4,74.0,29.91,SSW,195,5.0,5.0,71,0.00,,,0.00,923,Wunderground v.1.15,2013-05-19 16:30:00,
2013-05-19 11:35:00,85.1,74.2,29.91,SSW,207,4.0,11.0,70,0.00,,,0.00,969,Wunderground v.1.15,2013-05-19 16:35:00,
2013-05-19 11:44:00,85.1,73.3,29.91,SW,215,6.0,6.0,68,0.00,,,0.00,940,Wunderground v.1.15,2013-05-19 16:44:00,
2013-05-19 11:50:00,85.0,72.8,29.91,SSE,165,7.0,10.0,67,0.00,,,0.00,939,Wunderground v.1.15,2013-05-19 16:50:00,
2013-05-19 11:55:00,84.9,72.7,29.91,South,180,7.0,10.0,67,0.00,,,0.00,942,Wunderground v.1.15,2013-05-19 16:55:00,
2013-05-19 12:00:00,84.7,73.0,29.91,South,169,6.0,6.0,68,0.00,,,0.00,976,Wunderground v.1.15,2013-05-19 17:00:00,
2013-05-19 12:05:00,84.7,72.5,29.91,SSE,163,6.0,9.0,67,0.00,,,0.00,949,Wunderground v.1.15,2013-05-19 17:05:00,
2013-05-19 12:14:00,85.4,73.2,29.90,SSW,208,6.0,9.0,67,0.00,,,0.00,954,Wunderground v.1.15,2013-05-19 17:14:00,
2013-05-19 12:20:00,85.8,72.7,29.90,SW,218,6.0,6.0,65,0.00,,,0.00,972,Wunderground v.1.15,2013-05-19 17:20:00,
2013-05-19 12:30:00,85.5,73.3,29.90,South,169,4.0,4.0,67,0.00,,,0.00,1000,Wunderground v.1.15,2013-05-19 17:30:00,
2013-05-19 12:39:00,86.0,71.0,29.90,SW,224,5.0,7.0,61,0.00,,,0.00,993,Wunderground v.1.15,2013-05-19 17:39:00,
2013-05-19 12:45:00,86.1,72.5,29.90,South,176,6.0,7.0,64,0.00,,,0.00,984,Wunderground v.1.15,2013-05-19 17:45:00,
2013-05-19 12:50:00,86.0,71.5,29.90,South,190,6.0,6.0,62,0.00,,,0.00,974,Wunderground v.1.15,2013-05-19 17:50:00,
2013-05-19 12:55:00,85.8,70.8,29.90,SSW,201,8.0,8.0,61,0.00,,,0.00,979,Wunderground v.1.15,2013-05-19 17:55:00,
2013-05-19 13:04:00,86.1,71.6,29.89,SSW,203,7.0,12.0,62,0.00,,,0.00,979,Wunderground v.1.15,2013-05-19 18:04:00,
2013-05-19 13:09:00,86.3,71.3,29.89,South,186,6.0,6.0,61,0.00,,,0.00,979,Wunderground v.1.15,2013-05-19 18:09:00,
2013-05-19 13:15:00,86.4,72.3,29.89,SSW,205,7.0,7.0,63,0.00,,,0.00,977,Wunderground v.1.15,2013-05-19 18:15:00,
2013-05-19 13:20:00,86.9,72.8,29.89,SSW,201,5.0,5.0,63,0.00,,,0.00,984,Wunderground v.1.15,2013-05-19 18:20:00,
2013-05-19 13:25:00,86.7,71.6,29.89,SE,145,6.0,6.0,61,0.00,,,0.00,1011,Wunderground v.1.15,2013-05-19 18:25:00,
2013-05-19 13:35:00,86.8,72.2,29.89,SW,216,7.0,12.0,62,0.00,,,0.00,977,Wunderground v.1.15,2013-05-19 18:35:00,
2013-05-19 13:45:00,87.2,72.1,29.89,ENE,77,7.0,7.0,61,0.00,,,0.00,969,Wunderground v.1.15,2013-05-19 18:45:00,
2013-05-19 13:50:00,86.9,72.3,29.89,South,182,6.0,8.0,62,0.00,,,0.00,1023,Wunderground v.1.15,2013-05-19 18:50:00,
2013-05-19 13:55:00,86.6,71.5,29.89,SW,234,7.0,10.0,61,0.00,,,0.00,1067,Wunderground v.1.15,2013-05-19 18:55:00,
2013-05-19 14:05:00,86.9,74.2,29.89,South,190,7.0,12.0,66,0.00,,,0.00,1044,Wunderground v.1.15,2013-05-19 19:05:00,
2013-05-19 14:10:00,87.3,74.1,29.89,SSE,161,5.0,11.0,65,0.00,,,0.00,1063,Wunderground v.1.15,2013-05-19 19:10:00,
2013-05-19 14:15:00,87.3,73.6,29.89,SW,220,6.0,11.0,64,0.00,,,0.00,1120,Wunderground v.1.15,2013-05-19 19:15:00,
2013-05-19 14:20:00,87.3,74.1,29.89,SE,144,7.0,8.0,65,0.00,,,0.00,554,Wunderground v.1.15,2013-05-19 19:20:00,
2013-05-19 14:25:00,87.3,74.5,29.89,SW,217,6.0,8.0,66,0.00,,,0.00,364,Wunderground v.1.15,2013-05-19 19:25:00,
2013-05-19 14:35:00,86.3,73.6,29.89,SSW,209,5.0,5.0,66,0.00,,,0.00,248,Wunderground v.1.15,2013-05-19 19:35:00,
2013-05-19 14:40:00,85.9,73.2,29.89,SSW,211,5.0,8.0,66,0.00,,,0.00,559,Wunderground v.1.15,2013-05-19 19:40:00,
2013-05-19 14:45:00,86.1,73.4,29.89,ESE,113,6.0,8.0,66,0.00,,,0.00,559,Wunderground v.1.15,2013-05-19 19:45:00,
2013-05-19 14:50:00,86.3,73.6,29.88,SW,232,6.0,6.0,66,0.00,,,0.00,1035,Wunderground v.1.15,2013-05-19 19:50:00,
2013-05-19 14:55:00,86.6,73.4,29.88,South,171,5.0,8.0,65,0.00,,,0.00,1049,Wunderground v.1.15,2013-05-19 19:55:00,
2013-05-19 15:05:00,85.6,73.4,29.87,SSW,203,5.0,5.0,67,0.00,,,0.00,1002,Wunderground v.1.15,2013-05-19 20:05:00,
2013-05-19 15:10:00,86.1,73.9,29.88,SE,138,6.0,13.0,67,0.00,,,0.00,967,Wunderground v.1.15,2013-05-19 20:10:00,
2013-05-19 15:15:00,86.5,73.8,29.88,SSW,194,5.0,13.0,66,0.00,,,0.00,928,Wunderground v.1.15,2013-05-19 20:15:00,
2013-05-19 15:24:00,86.0,73.8,29.87,SW,223,7.0,7.0,67,0.00,,,0.00,891,Wunderground v.1.15,2013-05-19 20:24:00,
2013-05-19 15:29:00,86.1,73.9,29.88,SE,142,6.0,6.0,67,0.00,,,0.00,902,Wunderground v.1.15,2013-05-19 20:29:00,
2013-05-19 15:35:00,86.2,74.0,29.87,South,185,6.0,10.0,67,0.00,,,0.00,977,Wunderground v.1.15,2013-05-19 20:35:00,
2013-05-19 15:40:00,86.0,74.2,29.87,South,182,6.0,6.0,68,0.00,,,0.00,977,Wunderground v.1.15,2013-05-19 20:40:00,
2013-05-19 15:50:00,85.4,74.1,29.86,SSW,204,4.0,4.0,69,0.00,,,0.00,213,Wunderground v.1.15,2013-05-19 20:50:00,
2013-05-19 15:55:00,85.5,74.2,29.87,SW,215,4.0,4.0,69,0.00,,,0.00,807,Wunderground v.1.15,2013-05-19 20:55:00,
2013-05-19 16:00:00,85.7,73.9,29.86,SW,232,4.0,5.0,68,0.00,,,0.00,879,Wunderground v.1.15,2013-05-19 21:00:00,
2013-05-19 16:10:00,85.2,73.9,29.86,South,175,6.0,6.0,69,0.00,,,0.00,288,Wunderground v.1.15,2013-05-19 21:10:00,
2013-05-19 16:15:00,84.6,73.7,29.86,South,175,5.0,6.0,70,0.00,,,0.00,178,Wunderground v.1.15,2013-05-19 21:15:00,
2013-05-19 16:25:00,84.6,74.2,29.85,SSW,203,5.0,5.0,71,0.00,,,0.00,770,Wunderground v.1.15,2013-05-19 21:25:00,
2013-05-19 16:30:00,84.7,73.8,29.85,SSW,206,6.0,6.0,70,0.00,,,0.00,700,Wunderground v.1.15,2013-05-19 21:30:00,
2013-05-19 16:35:00,84.8,74.3,29.85,SSW,196,5.0,6.0,71,0.00,,,0.00,733,Wunderground v.1.15,2013-05-19 21:35:00,
2013-05-19 16:45:00,85.2,74.7,29.85,SSE,160,6.0,6.0,71,0.00,,,0.00,765,Wunderground v.1.15,2013-05-19 21:45:00,
2013-05-19 16:55:00,85.0,74.1,29.85,SSE,163,3.0,4.0,70,0.00,,,0.00,135,Wunderground v.1.15,2013-05-19 21:55:00,
2013-05-19 17:00:00,84.1,73.3,29.85,SSW,213,4.0,6.0,70,0.00,,,0.00,118,Wunderground v.1.15,2013-05-19 22:00:00,
2013-05-19 17:09:00,84.2,73.8,29.85,South,180,5.0,5.0,71,0.00,,,0.00,636,Wunderground v.1.15,2013-05-19 22:09:00,
2013-05-19 17:20:00,84.6,74.6,29.85,South,189,6.0,6.0,72,0.00,,,0.00,631,Wunderground v.1.15,2013-05-19 22:20:00,
2013-05-19 17:25:00,84.5,74.1,29.84,South,177,6.0,6.0,71,0.00,,,0.00,193,Wunderground v.1.15,2013-05-19 22:25:00,
2013-05-19 17:30:00,84.1,74.5,29.85,SSW,209,5.0,5.0,73,0.00,,,0.00,104,Wunderground v.1.15,2013-05-19 22:30:00,
2013-05-19 17:39:00,82.7,73.6,29.85,SSW,200,6.0,6.0,74,0.00,,,0.00,522,Wunderground v.1.15,2013-05-19 22:39:00,
2013-05-19 17:45:00,82.4,73.7,29.85,SSW,212,6.0,6.0,75,0.00,,,0.00,188,Wunderground v.1.15,2013-05-19 22:45:00,
2013-05-19 17:50:00,82.3,74.0,29.85,SSW,203,4.0,4.0,76,0.00,,,0.00,162,Wunderground v.1.15,2013-05-19 22:50:00,
2013-05-19 17:55:00,82.0,73.7,29.85,SSE,161,5.0,13.0,76,0.00,,,0.00,179,Wunderground v.1.15,2013-05-19 22:55:00,
2013-05-19 18:00:00,81.6,73.3,29.85,SW,216,6.0,6.0,76,0.00,,,0.00,160,Wunderground v.1.15,2013-05-19 23:00:00,
2013-05-19 18:09:00,81.3,73.8,29.84,SSE,159,4.0,4.0,78,0.00,,,0.00,364,Wunderground v.1.15,2013-05-19 23:09:00,
2013-05-19 18:15:00,81.5,74.0,29.84,WSW,252,4.0,11.0,78,0.00,,,0.00,330,Wunderground v.1.15,2013-05-19 23:15:00,
2013-05-19 18:20:00,81.5,74.0,29.84,SW,216,5.0,9.0,78,0.00,,,0.00,320,Wunderground v.1.15,2013-05-19 23:20:00,
2013-05-19 18:29:00,81.4,73.5,29.84,South,175,5.0,5.0,77,0.00,,,0.00,309,Wunderground v.1.15,2013-05-19 23:29:00,
2013-05-19 18:35:00,81.4,73.9,29.84,SE,142,5.0,5.0,78,0.00,,,0.00,306,Wunderground v.1.15,2013-05-19 23:35:00,
2013-05-19 18:40:00,81.5,74.0,29.83,SSE,151,5.0,5.0,78,0.00,,,0.00,287,Wunderground v.1.15,2013-05-19 23:40:00,
2013-05-19 18:45:00,81.4,73.9,29.84,SW,219,4.0,6.0,78,0.00,,,0.00,98,Wunderground v.1.15,2013-05-19 23:45:00,
2013-05-19 18:54:00,80.5,73.4,29.84,SE,143,6.0,10.0,79,0.00,,,0.00,46,Wunderground v.1.15,2013-05-19 23:54:00,
2013-05-19 18:59:00,80.1,73.0,29.84,SSE,162,4.0,8.0,79,0.00,,,0.00,44,Wunderground v.1.15,2013-05-19 23:59:00,
2013-05-19 19:05:00,79.7,73.0,29.84,SSW,203,4.0,8.0,80,0.00,,,0.00,49,Wunderground v.1.15,2013-05-20 00:05:00,
2013-05-19 19:10:00,79.4,72.7,29.84,SSE,150,2.0,6.0,80,0.00,,,0.00,40,Wunderground v.1.15,2013-05-20 00:10:00,
2013-05-19 19:15:00,79.2,72.5,29.84,SSE,151,2.0,6.0,80,0.00,,,0.00,46,Wunderground v.1.15,2013-05-20 00:15:00,
2013-05-19 19:25:00,78.9,72.6,29.85,SW,228,2.0,4.0,81,0.00,,,0.00,28,Wunderground v.1.15,2013-05-20 00:25:00,
2013-05-19 19:30:00,78.8,72.5,29.85,South,171,3.0,3.0,81,0.00,,,0.00,21,Wunderground v.1.15,2013-05-20 00:30:00,
2013-05-19 19:35:00,78.6,72.6,29.85,SSE,157,4.0,5.0,82,0.00,,,0.00,19,Wunderground v.1.15,2013-05-20 00:35:00,
2013-05-19 19:44:00,78.4,72.4,29.85,South,177,2.0,3.0,82,0.00,,,0.00,12,Wunderground v.1.15,2013-05-20 00:44:00,
2013-05-19 19:50:00,78.3,72.3,29.85,SSE,166,2.0,2.0,82,0.00,,,0.00,9,Wunderground v.1.15,2013-05-20 00:50:00,
2013-05-19 19:55:00,78.3,72.7,29.85,SSE,161,2.0,4.0,83,0.00,,,0.00,7,Wunderground v.1.15,2013-05-20 00:55:00,
2013-05-19 20:00:00,78.2,72.6,29.85,South,169,2.0,3.0,83,0.00,,,0.00,0,Wunderground v.1.15,2013-05-20 01:00:00,
2013-05-19 20:09:00,78.2,72.3,29.85,SSW,210,4.0,4.0,82,0.00,,,0.00,0,Wunderground v.1.15,2013-05-20 01:09:00,
2013-05-19 20:20:00,78.2,72.6,29.86,SSE,162,3.0,3.0,83,0.00,,,0.00,0,Wunderground v.1.15,2013-05-20 01:20:00,
2013-05-19 20:25:00,78.2,72.6,29.86,SSW,197,4.0,9.0,83,0.00,,,0.00,0,Wunderground v.1.15,2013-05-20 01:25:00,
2013-05-19 20:30:00,78.1,72.9,29.85,SSE,157,4.0,4.0,84,0.00,,,0.00,0,Wunderground v.1.15,2013-05-20 01:30:00,
2013-05-19 20:39:00,78.1,72.9,29.86,South,171,2.0,2.0,84,0.00,,,0.00,0,Wunderground v.1.15,2013-05-20 01:39:00,
2013-05-19 20:44:00,78.1,73.2,29.86,SW,221,1.0,5.0,85,0.00,,,0.00,0,Wunderground v.1.15,2013-05-20 01:44:00,
2013-05-19 20:50:00,78.0,73.1,29.86,South,188,2.0,2.0,85,0.00,,,0.00,0,Wunderground v.1.15,2013-05-20 01:50:00,
2013-05-19 20:55:00,77.9,73.4,29.86,SSW,196,2.0,2.0,86,0.00,,,0.00,0,Wunderground v.1.15,2013-05-20 01:55:00,
2013-05-19 21:00:00,77.9,73.4,29.86,SSW,203,2.0,6.0,86,0.00,,,0.00,0,Wunderground v.1.15,2013-05-20 02:00:00,
2013-05-19 21:09:00,77.8,73.3,29.87,South,181,1.0,3.0,86,0.00,,,0.00,0,Wunderground v.1.15,2013-05-20 02:09:00,
2013-05-19 21:15:00,77.8,73.6,29.87,South,175,1.0,3.0,87,0.00,,,0.00,0,Wunderground v.1.15,2013-05-20 02:15:00,
2013-05-19 21:20:00,77.8,73.3,29.87,SSE,161,1.0,1.0,86,0.00,,,0.00,0,Wunderground v.1.15,2013-05-20 02:20:00,
2013-05-19 21:29:00,77.7,73.5,29.87,SSE,147,1.0,1.0,87,0.00,,,0.00,0,Wunderground v.1.15,2013-05-20 02:29:00,
2013-05-19 21:35:00,77.7,73.5,29.87,SSW,192,2.0,2.0,87,0.00,,,0.00,0,Wunderground v.1.15,2013-05-20 02:35:00,
2013-05-19 21:40:00,77.6,73.4,29.87,SSE,165,2.0,5.0,87,0.00,,,0.00,0,Wunderground v.1.15,2013-05-20 02:40:00,
2013-05-19 21:45:00,77.6,73.4,29.87,SSE,159,2.0,5.0,87,0.00,,,0.00,0,Wunderground v.1.15,2013-05-20 02:45:00,
2013-05-19 21:54:00,77.6,73.4,29.87,SSE,168,3.0,13.0,87,0.00,,,0.00,0,Wunderground v.1.15,2013-05-20 02:54:00,
2013-05-19 21:59:00,77.6,73.4,29.87,SSE,155,3.0,3.0,87,0.00,,,0.00,0,Wunderground v.1.15,2013-05-20 02:59:00,
2013-05-19 22:05:00,77.6,73.4,29.88,SSW,199,2.0,7.0,87,0.00,,,0.00,0,Wunderground v.1.15,2013-05-20 03:05:00,
2013-05-19 22:10:00,77.6,73.4,29.88,ESE,121,2.0,3.0,87,0.00,,,0.00,0,Wunderground v.1.15,2013-05-20 03:10:00,
2013-05-19 22:15:00,77.6,73.4,29.88,SSE,155,2.0,3.0,87,0.00,,,0.00,0,Wunderground v.1.15,2013-05-20 03:15:00,
2013-05-19 22:24:00,77.5,73.3,29.88,SSE,157,2.0,7.0,87,0.00,,,0.00,0,Wunderground v.1.15,2013-05-20 03:24:00,
2013-05-19 22:29:00,77.5,73.3,29.88,South,179,3.0,4.0,87,0.00,,,0.00,0,Wunderground v.1.15,2013-05-20 03:29:00,
2013-05-19 22:35:00,77.6,73.4,29.88,SSW,198,2.0,4.0,87,0.00,,,0.00,0,Wunderground v.1.15,2013-05-20 03:35:00,
2013-05-19 22:45:00,77.6,73.4,29.89,South,174,0.0,2.0,87,0.00,,,0.00,0,Wunderground v.1.15,2013-05-20 03:45:00,
2013-05-19 22:54:00,77.5,73.7,29.89,South,184,1.0,4.0,88,0.00,,,0.00,0,Wunderground v.1.15,2013-05-20 03:54:00,
2013-05-19 23:00:00,77.4,73.6,29.89,South,174,2.0,3.0,88,0.00,,,0.00,0,Wunderground v.1.15,2013-05-20 04:00:00,
2013-05-19 23:04:00,77.4,73.6,29.88,South,188,2.0,3.0,88,0.00,,,0.00,0,Wunderground v.1.15,2013-05-20 04:04:00,
2013-05-19 23:09:00,77.4,73.2,29.88,SSW,206,3.0,3.0,87,0.00,,,0.00,0,Wunderground v.1.15,2013-05-20 04:09:00,
2013-05-19 23:20:00,77.6,73.4,29.89,SSW,198,2.0,2.0,87,0.00,,,0.00,0,Wunderground v.1.15,2013-05-20 04:20:00,
2013-05-19 23:25:00,77.6,73.4,29.89,SW,221,2.0,2.0,87,0.00,,,0.00,0,Wunderground v.1.15,2013-05-20 04:25:00,
2013-05-19 23:30:00,77.5,73.7,29.89,SSW,197,2.0,4.0,88,0.00,,,0.00,0,Wunderground v.1.15,2013-05-20 04:30:00,
2013-05-19 23:39:00,77.5,73.7,29.89,SSW,196,2.0,2.0,88,0.00,,,0.00,0,Wunderground v.1.15,2013-05-20 04:39:00,
2013-05-19 23:44:00,77.4,73.6,29.89,SW,219,2.0,3.0,88,0.00,,,0.00,0,Wunderground v.1.15,2013-05-20 04:44:00,
2013-05-19 23:50:00,77.4,73.6,29.89,SSW,202,3.0,3.0,88,0.00,,,0.00,0,Wunderground v.1.15,2013-05-20 04:50:00,
2013-05-19 23:55:00,77.4,73.6,29.89,SW,225,2.0,6.0,88,0.00,,,0.00,0,Wunderground v.1.15,2013-05-20 04:55:00,